Regional Weather Roundup
Issued by NWS

Home | Current Version | Previous Version | Graphics & Text | Print | Product List | Glossary On
Versions: 1 2 3 4 5 6 7 8 9 10 11 12 13 14 15 16 17 18 19 20 21 22 23 24 25 26 27 28 29 30 31 32 33 34 35 36 37 38 39 40 41 42 43 44 45 46 47 48 49 50
000
ASUS45 KCYS 240910
RWRWY

WYOMING REGIONAL WEATHER ROUNDUP
NATIONAL WEATHER SERVICE CHEYENNE WY
300 AM MDT SAT JUN 24 2017

NOTE:  "FAIR" INDICATES FEW OR NO CLOUDS BELOW 12,000 FEET
WITH NO SIGNIFICANT WEATHER AND/OR OBSTRUCTIONS TO VISIBILITY.

WYZ001-241000-
YELLOWSTONE NATIONAL PARK

CITY           SKY/WX    TMP DP  RH WIND       PRES   REMARKS
LK YELLOWSTONE   N/A     31  27  85 CALM      30.41F
W YELLOWSTONE  NOT AVBL

$$
WYZ002>013-054>058-071-098>099-241000-
NORTHERN WYOMING

CITY           SKY/WX    TMP DP  RH WIND       PRES   REMARKS
JACKSON        FAIR      41  36  81 N9        30.34S
CODY           FAIR      48  33  56 SW3       30.35S
GREYBULL       MOCLDY    54  32  43 W5        30.27S
WORLAND        FAIR      48  33  56 SW7       30.28S
SHERIDAN       FAIR      48  42  80 NE3       30.30S
BUFFALO        FAIR      47  34  60 NW7       30.33F
GILLETTE       FAIR      42  34  73 W6        30.29F
NEWCASTLE      FAIR      43  28  56 N6        30.30S

$$
WYZ014>020-022>026-101>103-241000-
CENTRAL WYOMING

CITY           SKY/WX    TMP DP  RH WIND       PRES   REMARKS
BIG PINEY      FAIR      40  32  73 SE3       30.36R
PINEDALE       FAIR      39  32  75 N3        30.37S
DUBOIS         FAIR      39  28  65 NW3       30.40S
LANDER         FAIR      47  32  56 W8        30.33S
RIVERTON       FAIR      49  31  49 E6        30.34S
CASPER         MOCLDY    40  33  76 NW5       30.33F
DOUGLAS        CLOUDY    46  37  71 CALM      30.33F

$$
WYZ021-027>030-104>119-241000-
SOUTHERN WYOMING

CITY           SKY/WX    TMP DP  RH WIND       PRES   REMARKS
EVANSTON       FAIR      51  33  50 CALM      30.34S
KEMMERER         N/A     45  30  57 N9        30.37R
FORT BRIDGER   FAIR      48  29  48 W7        30.36F
ROCK SPRINGS   FAIR      46  30  53 E8        30.34S
DIXON          FAIR      42  31  64 E3        30.30R
RAWLINS        FAIR      48  27  44 NE13      30.33S
SARATOGA       FAIR      41  34  75 W8        30.32R
LARAMIE        FAIR      44  32  62 E13       30.35S
CHEYENNE       CLOUDY    53  29  39 E7        30.34F
TORRINGTON     MOCLDY    53  36  52 CALM      30.29F
PINE BLUFFS    CLOUDY    50  43  76 N3        30.33S

$$



USA.gov is the U.S. government's official web portal to all federal, state and local government web resources and services.